Location: Bambrugge
(50.9212°N, 3.9299°E)
Time: 05:22:28
(UTC+00:00)

Cosmos 2242 Rocket - Pass Details

Date: 23 May 2024
Orbit: 617 x 647 km, 82.5° (Epoch: 19 June)

Event Time Altitude Azimuth Distance (km) Brightness Sun altitude
Exits shadow 02:30:58 12° 209° (SSW) 1,884 5.4 -9.3°
Maximum altitude 02:35:00 52° 284° (WNW) 790 3.9 -8.9°
Drops below altitude 10° 02:39:24 10° 2° (N) 2,034 7.0 -8.4°
Sets 02:41:44 0° 7° (N) 2,953 8.1 -8.2°
